Change the Weather History Date:

Monday, May 12, 2014

  Actual Average Record
Temperature  
Mean Temperature 52 °F -  
Max Temperature 72 °F 54 °F 72 °F (1988)
Min Temperature 32 °F 32 °F 19 °F (1952)
Degree Days  
Heating Degree Days 14    
Growing Degree Days 2 (Base 50)    
Moisture  
Dew Point 32 °F    
Average Humidity 54    
Maximum Humidity 85    
Minimum Humidity 22    
Precipitation  
Precipitation 0.00 in - - ()
Sea Level Pressure  
Sea Level Pressure 30.23 in    
Wind  
Wind Speed 3 mph (West)    
Max Wind Speed 7 mph    
Max Gust Speed -    
Visibility 10 miles    
Events      
Averages and records for this station are not official NWS values.
T = Trace of Precipitation, MM = Missing Value Source: NWS Daily Summary

Daily Weather History Graph

Daily Weather History Graph

Search for Another Location

Airport or City:

Trip Planner

Search our weather history database for the weather conditions in past years. The results will help you decide how hot, cold, wet, or windy it might be!

Date:

Astronomy

May. 12, 2014 Rise Set
Actual Time 4:51 AM AKDT 11:20 PM AKDT
Civil Twilight 2:59 AM AKDT 1:20 AM AKDT
Nautical Twilight Sun does not rise Sun does not rise
Astronomical Twilight Sun does not rise Sun does not rise
Moon 8:34 PM AKDT (5/12) 4:46 AM AKDT (5/12)
Length of Visible Light 22h 21m
Length of Day
18h 29m
Waxing Gibbous, 95% of the Moon is Illuminated
May 12
Waxing Gibbous
May 14
Full
May 21
Last Quarter
May 28
New
Jun 5
First Quarter

Hourly Weather History & Observations

Time (AKDT) Temp. Windchill Dew Point Humidity Pressure Visibility Wind Dir Wind Speed Gust Speed Precip Events Conditions
12:52 AM 43.0 °F 41.3 °F 34.0 °F 71% 30.26 in 10.0 mi ESE 3.5 mph - N/A   Clear
1:52 AM 37.0 °F - 30.9 °F 79% 30.26 in 10.0 mi Calm Calm - N/A   Clear
2:52 AM 34.0 °F 31.0 °F 28.9 °F 82% 30.27 in 10.0 mi NNW 3.5 mph - N/A   Clear
3:52 AM 35.1 °F 30.1 °F 30.0 °F 82% 30.27 in 10.0 mi NNW 5.8 mph - N/A   Clear
4:52 AM 33.1 °F 30.0 °F 28.9 °F 85% 30.27 in 10.0 mi NNE 3.5 mph - N/A   Clear
5:52 AM 32.0 °F - 28.0 °F 85% 30.28 in 10.0 mi Calm Calm - N/A   Mostly Cloudy
6:52 AM 34.0 °F - 30.0 °F 85% 30.29 in 10.0 mi Calm Calm - N/A   Mostly Cloudy
7:52 AM 39.0 °F 36.8 °F 33.1 °F 79% 30.29 in 10.0 mi West 3.5 mph - N/A   Scattered Clouds
8:52 AM 43.0 °F - 34.0 °F 71% 30.29 in 10.0 mi Calm Calm - N/A   Mostly Cloudy
9:52 AM 46.0 °F 44.8 °F 35.1 °F 66% 30.29 in 10.0 mi WSW 3.5 mph - N/A   Mostly Cloudy
10:52 AM 53.1 °F - 37.0 °F 55% 30.28 in 10.0 mi Calm Calm - N/A   Scattered Clouds
11:52 AM 55.9 °F - 37.0 °F 49% 30.27 in 10.0 mi SW 3.5 mph - N/A   Partly Cloudy
12:52 PM 64.9 °F - 36.0 °F 34% 30.26 in 10.0 mi WSW 4.6 mph - N/A   Partly Cloudy
1:52 PM 69.1 °F - 28.9 °F 22% 30.25 in 6.0 mi WSW 6.9 mph - N/A   Haze
2:52 PM 69.1 °F - 28.0 °F 22% 30.23 in 10.0 mi WSW 4.6 mph - N/A   Scattered Clouds
3:52 PM 70.0 °F - 28.9 °F 22% 30.22 in 10.0 mi Calm Calm - N/A   Mostly Cloudy
4:52 PM 69.1 °F - 32.0 °F 25% 30.20 in 10.0 mi Variable 3.5 mph - N/A   Mostly Cloudy
5:52 PM 68.0 °F - 32.0 °F 26% 30.18 in 10.0 mi ESE 6.9 mph - N/A   Mostly Cloudy
6:52 PM 71.1 °F - 30.0 °F 22% 30.17 in 10.0 mi Calm Calm - N/A   Mostly Cloudy
7:52 PM 69.1 °F - 30.0 °F 23% 30.16 in 10.0 mi Calm Calm - N/A   Mostly Cloudy
8:52 PM 66.0 °F - 30.9 °F 27% 30.14 in 10.0 mi West 3.5 mph - N/A   Mostly Cloudy
9:52 PM 57.0 °F - 39.9 °F 53% 30.14 in 10.0 mi Calm Calm - N/A   Mostly Cloudy
10:52 PM 52.0 °F - 39.0 °F 61% 30.14 in 10.0 mi Calm Calm - N/A   Clear
11:52 PM 46.9 °F - 37.0 °F 68% 30.14 in 10.0 mi NE 3.5 mph - N/A   Clear